Beatrice, NE

9:52 AM CDT on April 28, 2017 (GMT -0500)
Beatrice Municipal

Weather History for KBIE - December, 1999

Change the Weather History Date:

Tuesday, December 7, 1999

  Actual Average Record
Temperature  
Mean Temperature 38 °F -  
Max Temperature 51 °F 38 °F 62 °F (2000)
Min Temperature 26 °F 20 °F -9 °F (1950)
Degree Days  
Heating Degree Days 26    
Moisture  
Dew Point 27 °F    
Average Humidity 71    
Maximum Humidity 86    
Minimum Humidity 47    
Precipitation  
Precipitation 0.08 in - - ()
Sea Level Pressure  
Sea Level Pressure 29.85 in    
Wind  
Wind Speed 8 mph (South)    
Max Wind Speed 16 mph    
Max Gust Speed -    
Visibility 10 miles    
Events      
Averages and records for this station are not official NWS values.
T = Trace of Precipitation, MM = Missing Value Source: NWS Daily Summary

Daily Weather History Graph

Daily Weather History Graph

Search for Another Location

Airport or City:

Trip Planner

Search our weather history database for the weather conditions in past years. The results will help you decide how hot, cold, wet, or windy it might be!

Date:

Astronomy

Dec. 07, 1999 Rise Set
Actual Time 7:35 AM CST 5:00 PM CST
Civil Twilight 7:05 AM CST 5:31 PM CST
Nautical Twilight 6:31 AM CST 6:05 PM CST
Astronomical Twilight 5:58 AM CST 6:38 PM CST
Moon 7:06 AM CST (12/7) 5:13 PM CST (12/7)
Length of Visible Light 10h 25m
Length of Day
9h 24m
Waning Crescent, 0% of the Moon is Illuminated
Dec 7
Waning Crescent
Dec 7
New
Dec 15
First Quarter
Dec 22
Full
Dec 29
Last Quarter

Hourly Weather History & Observations

Time (CST) Temp. Windchill Dew Point Humidity Pressure Visibility Wind Dir Wind Speed Gust Speed Precip Events Conditions
12:12 AM 28.4 °F 21.2 °F 23.0 °F 80% 29.87 in 10.0 mi South 6.9 mph - N/A   Clear
12:30 AM 28.4 °F 22.2 °F 24.8 °F 86% 29.88 in 10.0 mi South 5.8 mph - N/A   Clear
12:52 AM 28.4 °F 22.2 °F 23.0 °F 80% 29.87 in 10.0 mi South 5.8 mph - N/A   Clear
1:09 AM 30.2 °F 21.9 °F 24.8 °F 80% 29.87 in 10.0 mi SSW 9.2 mph - N/A   Clear
1:29 AM 30.2 °F 21.9 °F 24.8 °F 80% 29.87 in 10.0 mi South 9.2 mph - N/A   Clear
1:50 AM 30.2 °F 21.9 °F 26.6 °F 86% 29.86 in 10.0 mi South 9.2 mph - N/A   Clear
2:09 AM 30.2 °F 22.6 °F 24.8 °F 80% 29.86 in 10.0 mi South 8.1 mph - N/A   Clear
2:30 AM 30.2 °F 22.6 °F 24.8 °F 80% 29.86 in 10.0 mi South 8.1 mph - N/A   Clear
2:52 AM 30.2 °F 23.4 °F 24.8 °F 80% 29.86 in 10.0 mi South 6.9 mph - N/A   Clear
3:11 AM 28.4 °F 21.2 °F 24.8 °F 86% 29.86 in 10.0 mi SSE 6.9 mph - N/A   Clear
3:30 AM 28.4 °F 21.2 °F 24.8 °F 86% 29.86 in 10.0 mi SSE 6.9 mph - N/A   Clear
3:49 AM 28.4 °F 21.2 °F 24.8 °F 86% 29.85 in 10.0 mi South 6.9 mph - N/A   Clear
4:11 AM 28.4 °F 20.4 °F 24.8 °F 86% 29.85 in 10.0 mi South 8.1 mph - N/A   Clear
4:32 AM 28.4 °F 21.2 °F 24.8 °F 86% 29.85 in 10.0 mi South 6.9 mph - N/A   Clear
4:49 AM 28.4 °F 20.4 °F 24.8 °F 86% 29.85 in 10.0 mi South 8.1 mph - N/A   Clear
5:12 AM 28.4 °F 20.4 °F 24.8 °F 86% 29.85 in 10.0 mi South 8.1 mph - N/A   Clear
5:30 AM 28.4 °F 19.7 °F 24.8 °F 86% 29.85 in 10.0 mi South 9.2 mph - N/A   Clear
5:51 AM 28.4 °F 22.2 °F 24.8 °F 86% 29.86 in 10.0 mi SSW 5.8 mph - N/A   Clear
6:12 AM 26.6 °F 20.0 °F 21.2 °F 80% 29.86 in 10.0 mi South 5.8 mph - N/A   Clear
6:30 AM 28.4 °F 21.2 °F 24.8 °F 86% 29.85 in 10.0 mi South 6.9 mph - N/A   Clear
6:49 AM 28.4 °F 20.4 °F 23.0 °F 80% 29.85 in 10.0 mi South 8.1 mph - N/A   Clear
7:11 AM 28.4 °F 21.2 °F 24.8 °F 86% 29.85 in 10.0 mi South 6.9 mph - N/A   Clear
7:31 AM 28.4 °F 20.4 °F 24.8 °F 86% 29.85 in 10.0 mi South 8.1 mph - N/A   Clear
7:49 AM 28.4 °F 19.7 °F 24.8 °F 86% 29.85 in 10.0 mi South 9.2 mph - N/A   Clear
8:12 AM 30.2 °F 22.6 °F 24.8 °F 80% 29.86 in 10.0 mi South 8.1 mph - N/A   Clear
8:30 AM 30.2 °F 22.6 °F 26.6 °F 86% 29.86 in 10.0 mi South 8.1 mph - N/A   Clear
8:49 AM 32.0 °F 23.0 °F 26.6 °F 80% 29.86 in 10.0 mi South 11.5 mph - N/A   Clear
9:11 AM 33.8 °F 25.3 °F 28.4 °F 81% 29.87 in 10.0 mi SSW 11.5 mph - N/A   Clear
9:32 AM 35.6 °F 27.5 °F 28.4 °F 75% 29.87 in 10.0 mi SSW 11.5 mph - N/A   Clear
9:51 AM 37.4 °F 29.3 °F 30.2 °F 75% 29.87 in 10.0 mi South 12.7 mph - N/A   Clear
10:12 AM 37.4 °F 28.5 °F 30.2 °F 75% 29.87 in 10.0 mi South 15.0 mph - N/A   Clear
10:29 AM 39.2 °F 32.0 °F 32.0 °F 75% 29.87 in 10.0 mi SSW 11.5 mph - N/A   Clear
10:50 AM 41.0 °F 33.9 °F 30.2 °F 65% 29.86 in 10.0 mi South 12.7 mph - N/A   Clear
11:12 AM 42.8 °F 36.6 °F 30.2 °F 61% 29.85 in 10.0 mi South 11.5 mph - N/A   Clear
11:31 AM 44.6 °F 38.4 °F 32.0 °F 61% 29.84 in 10.0 mi SSW 12.7 mph - N/A   Clear
12:12 PM 46.4 °F 40.7 °F 32.0 °F 57% 29.82 in 10.0 mi South 12.7 mph - N/A   Clear
12:32 PM 46.4 °F 40.4 °F 32.0 °F 57% 29.82 in 10.0 mi South 13.8 mph - N/A   Clear
1:09 PM 48.2 °F - 32.0 °F 54% 29.81 in 10.0 mi South 12.7 mph - N/A   Clear
1:52 PM 51.8 °F - 32.0 °F 47% 29.80 in 10.0 mi South 13.8 mph - N/A   Clear
2:09 PM 51.8 °F - 33.8 °F 50% 29.81 in 10.0 mi South 12.7 mph - N/A   Clear
2:31 PM 51.8 °F - 33.8 °F 50% 29.80 in 10.0 mi South 11.5 mph - N/A   Clear
2:52 PM 51.8 °F - 32.0 °F 47% 29.80 in 10.0 mi South 15.0 mph - N/A   Clear
3:14 PM 51.8 °F - 33.8 °F 50% 29.80 in 10.0 mi South 12.7 mph - N/A   Clear
3:49 PM 50.0 °F - 32.0 °F 50% 29.81 in 10.0 mi South 16.1 mph - N/A   Clear
4:32 PM 48.2 °F - 30.2 °F 50% - - North - - 0.08 in   Unknown
4:50 PM - - - N/A% - - North - - 0.08 in   Unknown
5:33 PM 44.6 °F 38.8 °F 28.4 °F 53% 29.83 in 10.0 mi South 11.5 mph - N/A   Clear
5:49 PM 44.6 °F 38.4 °F 28.4 °F 53% 29.84 in 10.0 mi South 12.7 mph - N/A   Clear
6:09 PM 42.8 °F 37.5 °F 28.4 °F 57% 29.85 in 10.0 mi South 9.2 mph - N/A   Clear
6:49 PM 42.8 °F 37.0 °F 26.6 °F 53% 29.86 in 10.0 mi South 10.4 mph - N/A   Clear
7:09 PM 41.0 °F 34.7 °F 26.6 °F 57% 29.88 in 10.0 mi South 10.4 mph - N/A   Clear
7:30 PM 39.2 °F 33.0 °F 26.6 °F 61% 29.88 in 10.0 mi South 9.2 mph - N/A   Clear
8:31 PM 39.2 °F 35.0 °F 26.6 °F 61% 29.88 in 10.0 mi SE 5.8 mph - N/A   Clear
9:10 PM 39.2 °F 35.0 °F 28.4 °F 65% 29.88 in 10.0 mi SSE 5.8 mph - N/A   Clear
9:31 PM 37.4 °F 34.9 °F 26.6 °F 65% 29.88 in 10.0 mi SSE 3.5 mph - N/A   Clear
10:10 PM 37.4 °F 34.9 °F 26.6 °F 65% 29.88 in 10.0 mi ESE 3.5 mph - N/A   Clear
10:30 PM 35.6 °F - 24.8 °F 65% 29.89 in 10.0 mi Calm Calm - N/A   Clear
10:49 PM 35.6 °F - 26.6 °F 70% 29.88 in 10.0 mi Calm Calm - N/A   Clear
11:10 PM 33.8 °F - 24.8 °F 70% 29.89 in 10.0 mi Calm Calm - N/A   Clear
11:31 PM 33.8 °F - 26.6 °F 75% 29.89 in 10.0 mi Calm Calm - N/A   Clear
11:49 PM 30.2 °F 26.7 °F 24.8 °F 80% 29.89 in 10.0 mi East 3.5 mph - N/A   Clear